Location: Gro�bocka
(50.8204°N, 11.9702°E)
Time: 06:30:30
(UTC+00:00)

Cosmos 1953 Rocket - Pass Details

Date: 29 October 2020
Orbit: 605 x 634 km, 82.5° (Epoch: 01 December)

Event Time Altitude Azimuth Distance (km) Brightness Sun altitude
Rises 16:31:33 0° 350° (N) 2,905 7.0 -6.9°
Reaches altitude 10° 16:33:47 10° 353° (N) 1,999 6.1 -7.2°
Maximum altitude 16:38:13 75° 79° (E) 652 3.5 -7.9°
Drops below altitude 10° 16:42:39 10° 165° (SSE) 2,000 6.1 -8.6°
Sets 16:44:53 0° 167° (SSE) 2,907 7.0 -8.9°
